カタログに戻る

ONEWEB-0412

運用中通信PO
NORAD 50489·PAYLOAD·🇬🇧 United Kingdom

打ち上げ Dec 27, 2021 から Baikonur Cosmodrome

Loading…

次のパス (今後24時間)

TLE

最新Source: CelesTrak SupGP

元期: Sep 14, 2026, 21:22 UTC

1 50489C 21132W   26257.89042083 -.00000116  00000+0 -29522-3 0  2570
2 50489  87.9160 317.6351 0002246  95.3162  17.0029 13.18683741    17

AllMySatでONEWEB-0412をリアルタイム追跡

Download on the App Store